THY2205 LTAI-LGSR

Flight info

Callsign THY2205
Flight time 0h 55m
Altitude 36000
Route LORKO UW79 DAL UN136 RDS UM601 ASTIS B34 UVRIT
Aircraft A21N/M-SDE3FGHIRWY/LB1

Departure

Time 2026-05-08 05:12
Airport Antalya International Airport (LTAI)

Arrival

Time 2026-05-08 06:08
Airport Santorini International Airport (LGSR)
Time Latitude Longitude Altitude Speed Heading
2026-05-08 04:51 36.89500 30.80565 185 ft 0 kts 186°
2026-05-08 05:04 36.89502 30.80565 185 ft 2 kts 186°
2026-05-08 05:04 36.89517 30.80568 185 ft 2 kts 189°
2026-05-08 05:05 36.89532 30.80571 185 ft 2 kts 188°
2026-05-08 05:05 36.89545 30.80573 185 ft 1 kts 189°
2026-05-08 05:05 36.89560 30.80574 185 ft 2 kts 158°
2026-05-08 05:05 36.89571 30.80562 185 ft 2 kts 119°
2026-05-08 05:06 36.89575 30.80546 185 ft 0 kts 92°
2026-05-08 05:06 36.89575 30.80543 185 ft 0 kts 93°
2026-05-08 05:08 36.89573 30.80560 185 ft 5 kts 99°
2026-05-08 05:08 36.89567 30.80618 185 ft 8 kts 97°
2026-05-08 05:08 36.89543 30.80680 185 ft 8 kts 166°
2026-05-08 05:08 36.89478 30.80676 185 ft 10 kts 186°
2026-05-08 05:09 36.89386 30.80663 185 ft 16 kts 186°
2026-05-08 05:09 36.89252 30.80644 185 ft 21 kts 186°
2026-05-08 05:09 36.89088 30.80622 185 ft 23 kts 186°
2026-05-08 05:09 36.88927 30.80599 185 ft 22 kts 186°
2026-05-08 05:10 36.88774 30.80578 185 ft 21 kts 187°
2026-05-08 05:10 36.88580 30.80557 185 ft 7 kts 157°
2026-05-08 05:10 36.88563 30.80619 185 ft 8 kts 73°
2026-05-08 05:11 36.88606 30.80672 185 ft 9 kts 36°
2026-05-08 05:11 36.88667 30.80726 185 ft 12 kts 34°
2026-05-08 05:11 36.88749 30.80784 185 ft 14 kts 25°
2026-05-08 05:11 36.88867 30.80830 185 ft 27 kts
2026-05-08 05:12 36.89311 30.80892 185 ft 100 kts
2026-05-08 05:12 36.90219 30.81016 188 ft 158 kts
2026-05-08 05:12 36.91362 30.81181 630 ft 168 kts
2026-05-08 05:12 36.92491 30.81548 1274 ft 171 kts 21°
2026-05-08 05:13 36.93558 30.82169 1969 ft 171 kts 25°
2026-05-08 05:13 36.94632 30.82761 2646 ft 171 kts 23°
2026-05-08 05:13 36.95705 30.83323 3313 ft 169 kts 22°
2026-05-08 05:13 36.96808 30.83869 3717 ft 173 kts 21°
2026-05-08 05:14 36.97936 30.84538 3944 ft 189 kts 38°
2026-05-08 05:14 36.98687 30.85946 4204 ft 205 kts 72°
2026-05-08 05:14 36.98668 30.87760 4457 ft 223 kts 106°
2026-05-08 05:14 36.97714 30.89378 4679 ft 246 kts 146°
2026-05-08 05:15 36.96038 30.89985 4984 ft 265 kts 182°
2026-05-08 05:15 36.94260 30.89222 5360 ft 279 kts 218°
2026-05-08 05:15 36.93113 30.87304 5961 ft 281 kts 253°
2026-05-08 05:15 36.92878 30.84943 6665 ft 279 kts 271°
2026-05-08 05:16 36.92882 30.82505 7356 ft 281 kts 272°
2026-05-08 05:16 36.92825 30.80055 8031 ft 284 kts 269°
2026-05-08 05:16 36.92686 30.77578 8719 ft 286 kts 268°
2026-05-08 05:16 36.92489 30.75123 9383 ft 288 kts 266°
2026-05-08 05:17 36.92250 30.72625 10010 ft 291 kts 266°
2026-05-08 05:17 36.91990 30.70134 10544 ft 296 kts 266°
2026-05-08 05:17 36.91707 30.67522 10832 ft 311 kts 265°
2026-05-08 05:17 36.91402 30.64792 11119 ft 325 kts 265°
2026-05-08 05:18 36.91075 30.61947 11561 ft 331 kts 265°
2026-05-08 05:18 36.90745 30.59128 12162 ft 333 kts 265°
2026-05-08 05:18 36.90409 30.56279 12769 ft 334 kts 265°
2026-05-08 05:18 36.90072 30.53419 13314 ft 336 kts 265°
2026-05-08 05:19 36.89731 30.50536 13877 ft 338 kts 265°
2026-05-08 05:19 36.89386 30.47643 14468 ft 339 kts 266°
2026-05-08 05:19 36.89043 30.44736 14991 ft 341 kts 265°
2026-05-08 05:19 36.88696 30.41825 15503 ft 343 kts 265°
2026-05-08 05:20 36.88342 30.38854 16043 ft 344 kts 265°
2026-05-08 05:20 36.87992 30.35919 16542 ft 347 kts 265°
2026-05-08 05:20 36.87632 30.32925 17037 ft 349 kts 265°
2026-05-08 05:20 36.87269 30.29912 17536 ft 351 kts 265°
2026-05-08 05:21 36.86912 30.26941 18033 ft 352 kts 265°
2026-05-08 05:21 36.86549 30.23923 18497 ft 354 kts 265°
2026-05-08 05:21 36.86176 30.20857 18939 ft 356 kts 265°
2026-05-08 05:21 36.85809 30.17820 19389 ft 357 kts 265°
2026-05-08 05:22 36.85436 30.14754 19831 ft 358 kts 265°
2026-05-08 05:22 36.85060 30.11673 20247 ft 360 kts 265°
2026-05-08 05:22 36.84684 30.08591 20668 ft 361 kts 265°
2026-05-08 05:22 36.84306 30.05505 21067 ft 363 kts 265°
2026-05-08 05:23 36.83925 30.02396 21456 ft 365 kts 265°
2026-05-08 05:23 36.83540 29.99266 21864 ft 366 kts 265°
2026-05-08 05:23 36.83152 29.96120 22263 ft 367 kts 265°
2026-05-08 05:23 36.82766 29.92993 22675 ft 367 kts 265°
2026-05-08 05:24 36.82378 29.89842 23028 ft 369 kts 265°
2026-05-08 05:24 36.81985 29.86685 23389 ft 371 kts 265°
2026-05-08 05:24 36.81588 29.83511 23749 ft 372 kts 265°
2026-05-08 05:24 36.81192 29.80343 24090 ft 373 kts 266°
2026-05-08 05:25 36.80793 29.77135 24408 ft 375 kts 266°
2026-05-08 05:25 36.80406 29.73921 24734 ft 376 kts 267°
2026-05-08 05:25 36.80036 29.70705 25052 ft 377 kts 267°
2026-05-08 05:25 36.79666 29.67460 25370 ft 378 kts 267°
2026-05-08 05:26 36.79293 29.64222 25671 ft 380 kts 268°
2026-05-08 05:26 36.78919 29.60981 25987 ft 380 kts 268°
2026-05-08 05:26 36.78541 29.57727 26298 ft 381 kts 268°
2026-05-08 05:26 36.78160 29.54455 26565 ft 383 kts 268°
2026-05-08 05:27 36.77778 29.51192 26829 ft 384 kts 268°
2026-05-08 05:27 36.77391 29.47902 27141 ft 384 kts 268°
2026-05-08 05:27 36.77006 29.44625 27429 ft 384 kts 268°
2026-05-08 05:27 36.76615 29.41326 27666 ft 386 kts 268°
2026-05-08 05:28 36.76225 29.38012 27893 ft 387 kts 268°
2026-05-08 05:28 36.75834 29.34696 28148 ft 389 kts 268°
2026-05-08 05:28 36.75433 29.31332 28383 ft 390 kts 268°
2026-05-08 05:28 36.75038 29.28014 28650 ft 391 kts 268°
2026-05-08 05:29 36.74638 29.24676 28907 ft 392 kts 268°
2026-05-08 05:29 36.74285 29.21710 29119 ft 393 kts 268°
2026-05-08 05:29 36.73877 29.18303 29369 ft 394 kts 268°
2026-05-08 05:29 36.73471 29.14941 29600 ft 395 kts 268°
2026-05-08 05:30 36.73067 29.11592 29837 ft 396 kts 268°
2026-05-08 05:30 36.72652 29.08150 30063 ft 398 kts 268°
2026-05-08 05:30 36.72241 29.04773 30152 ft 397 kts 268°
2026-05-08 05:31 36.71411 28.97981 30139 ft 396 kts 268°
2026-05-08 05:31 36.70588 28.91248 30129 ft 397 kts 268°
2026-05-08 05:32 36.69682 28.84454 30127 ft 399 kts 264°
2026-05-08 05:32 36.68116 28.77798 30126 ft 406 kts 257°
2026-05-08 05:33 36.65759 28.71381 30124 ft 414 kts 249°
2026-05-08 05:33 36.62904 28.65196 30122 ft 414 kts 248°
2026-05-08 05:34 36.60015 28.59016 30120 ft 413 kts 248°
2026-05-08 05:34 36.57122 28.52838 30117 ft 412 kts 248°
2026-05-08 05:35 36.54175 28.46735 30116 ft 414 kts 245°
2026-05-08 05:35 36.51069 28.40767 30114 ft 414 kts 245°
2026-05-08 05:36 36.47920 28.34738 30116 ft 415 kts 245°
2026-05-08 05:36 36.44791 28.28758 30111 ft 415 kts 244°
2026-05-08 05:37 36.41662 28.22791 30112 ft 413 kts 244°
2026-05-08 05:37 36.38508 28.16784 30112 ft 414 kts 244°
2026-05-08 05:38 36.35947 28.10561 30111 ft 400 kts 258°
2026-05-08 05:38 36.34969 28.03901 30116 ft 390 kts 272°
2026-05-08 05:39 36.35435 27.97238 30119 ft 389 kts 282°
2026-05-08 05:39 36.36277 27.90633 30112 ft 391 kts 283°
2026-05-08 05:40 36.37134 27.83972 30109 ft 390 kts 282°
2026-05-08 05:40 36.37980 27.77356 30107 ft 390 kts 282°
2026-05-08 05:41 36.38827 27.70722 30105 ft 389 kts 282°
2026-05-08 05:41 36.39668 27.64080 30108 ft 389 kts 282°
2026-05-08 05:42 36.40494 27.57495 30101 ft 389 kts 282°
2026-05-08 05:42 36.41321 27.50893 30104 ft 388 kts 282°
2026-05-08 05:43 36.42147 27.44258 30106 ft 388 kts 282°
2026-05-08 05:43 36.42961 27.37669 30106 ft 388 kts 282°
2026-05-08 05:44 36.43778 27.31028 30104 ft 388 kts 282°
2026-05-08 05:44 36.44585 27.24436 30102 ft 388 kts 281°
2026-05-08 05:45 36.45389 27.17840 30107 ft 388 kts 281°
2026-05-08 05:45 36.46188 27.11229 30104 ft 387 kts 281°
2026-05-08 05:45 36.46586 27.07934 29715 ft 384 kts 281°
2026-05-08 05:46 36.46978 27.04705 29158 ft 384 kts 281°
2026-05-08 05:46 36.47376 27.01437 28672 ft 380 kts 281°
2026-05-08 05:46 36.47767 26.98219 28193 ft 376 kts 281°
2026-05-08 05:46 36.48152 26.95048 27710 ft 373 kts 281°
2026-05-08 05:47 36.48536 26.91874 27207 ft 370 kts 281°
2026-05-08 05:47 36.48915 26.88734 26703 ft 368 kts 281°
2026-05-08 05:47 36.49289 26.85608 26195 ft 365 kts 281°
2026-05-08 05:47 36.49659 26.82494 25719 ft 362 kts 281°
2026-05-08 05:48 36.50022 26.79453 25271 ft 358 kts 281°
2026-05-08 05:48 36.50384 26.76428 24800 ft 356 kts 281°
2026-05-08 05:48 36.50741 26.73400 24301 ft 354 kts 281°
2026-05-08 05:48 36.51099 26.70374 23815 ft 352 kts 281°
2026-05-08 05:49 36.51450 26.67387 23335 ft 350 kts 281°
2026-05-08 05:49 36.51798 26.64412 22865 ft 349 kts 281°
2026-05-08 05:49 36.52148 26.61439 22375 ft 348 kts 281°
2026-05-08 05:49 36.52495 26.58474 21894 ft 348 kts 281°
2026-05-08 05:50 36.52839 26.55530 21420 ft 347 kts 281°
2026-05-08 05:50 36.53180 26.52585 20949 ft 346 kts 280°
2026-05-08 05:50 36.53524 26.49621 20457 ft 345 kts 280°
2026-05-08 05:50 36.53864 26.46712 19974 ft 345 kts 280°
2026-05-08 05:51 36.54204 26.43758 19504 ft 344 kts 280°
2026-05-08 05:51 36.54542 26.40828 19015 ft 344 kts 279°
2026-05-08 05:51 36.54879 26.37898 18520 ft 344 kts 279°
2026-05-08 05:51 36.55213 26.34981 18035 ft 343 kts 278°
2026-05-08 05:52 36.55551 26.32015 17545 ft 343 kts 278°
2026-05-08 05:52 36.55882 26.29095 17070 ft 342 kts 278°
2026-05-08 05:52 36.56212 26.26177 16604 ft 341 kts 278°
2026-05-08 05:52 36.56538 26.23302 16162 ft 340 kts 278°
2026-05-08 05:53 36.56860 26.20397 15712 ft 338 kts 278°
2026-05-08 05:53 36.57176 26.17501 15269 ft 336 kts 278°
2026-05-08 05:53 36.57481 26.14671 14830 ft 334 kts 278°
2026-05-08 05:53 36.57789 26.11815 14394 ft 332 kts 278°
2026-05-08 05:54 36.58094 26.08981 13948 ft 331 kts 279°
2026-05-08 05:54 36.58394 26.06176 13508 ft 329 kts 279°
2026-05-08 05:54 36.58698 26.03354 13063 ft 327 kts 279°
2026-05-08 05:54 36.59002 26.00547 12624 ft 326 kts 279°
2026-05-08 05:55 36.59299 25.97781 12182 ft 324 kts 278°
2026-05-08 05:55 36.59594 25.95014 11736 ft 323 kts 278°
2026-05-08 05:55 36.59888 25.92251 11304 ft 321 kts 278°
2026-05-08 05:55 36.60177 25.89515 11069 ft 312 kts 278°
2026-05-08 05:56 36.60454 25.86893 10937 ft 297 kts 278°
2026-05-08 05:56 36.60730 25.84422 10798 ft 284 kts 280°
2026-05-08 05:56 36.61135 25.82054 10619 ft 275 kts 285°
2026-05-08 05:56 36.61673 25.79801 10244 ft 274 kts 288°
2026-05-08 05:57 36.62249 25.77558 9891 ft 273 kts 288°
2026-05-08 05:57 36.62833 25.75303 9540 ft 271 kts 288°
2026-05-08 05:57 36.63405 25.73086 9194 ft 270 kts 287°
2026-05-08 05:57 36.63974 25.70871 8847 ft 268 kts 287°
2026-05-08 05:58 36.64539 25.68667 8504 ft 267 kts 287°
2026-05-08 05:58 36.65101 25.66469 8156 ft 266 kts 287°
2026-05-08 05:58 36.65658 25.64292 7818 ft 265 kts 287°
2026-05-08 05:58 36.66211 25.62130 7487 ft 263 kts 287°
2026-05-08 05:59 36.66769 25.59940 7150 ft 261 kts 287°
2026-05-08 05:59 36.67314 25.57805 6819 ft 256 kts 287°
2026-05-08 05:59 36.67842 25.55737 6523 ft 247 kts 287°
2026-05-08 05:59 36.68341 25.53772 6436 ft 234 kts 286°
2026-05-08 06:00 36.68571 25.51800 6325 ft 231 kts 265°
2026-05-08 06:00 36.68195 25.49864 6060 ft 231 kts 250°
2026-05-08 06:00 36.67612 25.48006 5759 ft 228 kts 248°
2026-05-08 06:00 36.67028 25.46190 5500 ft 224 kts 248°
2026-05-08 06:01 36.66479 25.44452 5284 ft 212 kts 248°
2026-05-08 06:01 36.65955 25.42772 4972 ft 203 kts 248°
2026-05-08 06:01 36.65463 25.41179 4705 ft 193 kts 248°
2026-05-08 06:01 36.64993 25.39661 4463 ft 184 kts 246°
2026-05-08 06:02 36.64309 25.38381 4198 ft 178 kts 221°
2026-05-08 06:02 36.63213 25.37664 3959 ft 181 kts 190°
2026-05-08 06:02 36.61954 25.37705 3811 ft 180 kts 169°
2026-05-08 06:02 36.60755 25.38111 3778 ft 180 kts 162°
2026-05-08 06:03 36.59573 25.38641 3666 ft 180 kts 160°
2026-05-08 06:03 36.58408 25.39196 3555 ft 179 kts 160°
2026-05-08 06:03 36.57246 25.39752 3476 ft 178 kts 160°
2026-05-08 06:03 36.56080 25.40306 3257 ft 178 kts 160°
2026-05-08 06:04 36.54934 25.40847 3009 ft 176 kts 160°
2026-05-08 06:04 36.53793 25.41384 2772 ft 175 kts 160°
2026-05-08 06:04 36.52653 25.41919 2542 ft 174 kts 159°
2026-05-08 06:04 36.51528 25.42448 2301 ft 166 kts 159°
2026-05-08 06:05 36.50497 25.42932 2113 ft 152 kts 159°
2026-05-08 06:05 36.49523 25.43390 1899 ft 147 kts 159°
2026-05-08 06:05 36.48571 25.43838 1711 ft 146 kts 158°
2026-05-08 06:05 36.47617 25.44287 1514 ft 146 kts 158°
2026-05-08 06:06 36.46680 25.44730 1329 ft 145 kts 158°
2026-05-08 06:06 36.45731 25.45189 1142 ft 145 kts 158°
2026-05-08 06:06 36.44784 25.45616 944 ft 144 kts 158°
2026-05-08 06:06 36.43845 25.46036 771 ft 143 kts 155°
2026-05-08 06:07 36.42914 25.46492 594 ft 144 kts 157°
2026-05-08 06:07 36.41977 25.46939 390 ft 143 kts 157°
2026-05-08 06:07 36.41067 25.47369 186 ft 139 kts 157°
2026-05-08 06:07 36.40217 25.47776 106 ft 103 kts 159°
2026-05-08 06:08 36.39844 25.47949 94 ft 12 kts 159°
2026-05-08 06:08 36.39782 25.47950 92 ft 2 kts 251°
2026-05-08 06:08 36.39776 25.47937 92 ft 1 kts 245°
2026-05-08 06:08 36.39771 25.47923 93 ft 1 kts 247°
2026-05-08 06:09 36.39767 25.47911 93 ft 0 kts 248°
2026-05-08 06:09 36.39761 25.47892 94 ft 6 kts 249°
2026-05-08 06:09 36.39769 25.47819 96 ft 9 kts 335°
2026-05-08 06:09 36.39831 25.47790 98 ft 10 kts 340°
2026-05-08 06:10 36.39926 25.47746 101 ft 18 kts 340°
2026-05-08 06:10 36.40060 25.47682 105 ft 20 kts 339°
2026-05-08 06:10 36.40185 25.47624 108 ft 18 kts 340°
2026-05-08 06:10 36.40268 25.47579 111 ft 8 kts 302°
2026-05-08 06:11 36.40268 25.47519 112 ft 4 kts 252°
2026-05-08 06:11 36.40272 25.47487 113 ft 3 kts 311°
2026-05-08 06:11 36.40284 25.47466 113 ft 2 kts 281°
2026-05-08 06:11 36.40282 25.47454 114 ft 1 kts 249°
2026-05-08 06:12 36.40276 25.47435 114 ft 2 kts 250°
2026-05-08 06:12 36.40272 25.47424 115 ft 0 kts 250°
2026-05-08 06:12 36.40271 25.47419 115 ft 0 kts 249°